Back to catalog

CZ-6A DEB

AlivePO
NORAD 61266·DEBRIS·🇨🇳 China

Launched Aug 6, 2024 from Taiyuan Satellite Launch Center

Loading…

Next Passes (next 24 hours)

TLE

FreshSource: Space-Track

Epoch: Sep 14, 2026, 08:45 UTC

1 61266U 24140SB  26257.36459137  .00009334  00000-0  16505-2 0  9990
2 61266  88.5779 219.6694 0044651 231.0583 128.6650 14.66657209108829

Track CZ-6A DEB in real time with AllMySat

Download on the App Store